• In Czech Republic
  • List of Countries
  • For 7 days
  • Water Temperature
  • Satellite Maps
  • Weather Map
  • Weather Widgets
  • user-avatar
    Login

    Hourly Weather Little Rock

    Today, 20 February, Tuesday

    Time Temperature Precipitation Wind Pressure Humidity
    00:00 +21°C° 0 mm 5 mps 754 mmHg 83%
    01:00 +20°C° 0 mm 5 mps 754 mmHg 83%
    02:00 +20°C° 0 mm 5 mps 754 mmHg 83%
    03:00 +20°C° 0 mm 5 mps 754 mmHg 83%
    04:00 +19°C° 0.1 mm 5 mps 755 mmHg 85%
    05:00 +19°C° 0.1 mm 4 mps 755 mmHg 87%
    06:00 +18°C° 0 mm 3 mps 755 mmHg 94%
    07:00 +19°C° 0 mm 3 mps 755 mmHg 92%
    08:00 +20°C° 0 mm 4 mps 756 mmHg 91%
    09:00 +20°C° 0 mm 5 mps 756 mmHg 89%
    10:00 +21°C° 0.1 mm 5 mps 756 mmHg 88%
    11:00 +21°C° 0.1 mm 4 mps 756 mmHg 86%
    12:00 +22°C° 0.1 mm 4 mps 756 mmHg 85%
    13:00 +23°C° 0.2 mm 5 mps 755 mmHg 78%
    14:00 +25°C° 0.2 mm 5 mps 754 mmHg 71%
    15:00 +27°C° 0.2 mm 6 mps 754 mmHg 64%
    16:00 +26°C° 0 mm 5 mps 753 mmHg 68%
    17:00 +25°C° 0 mm 5 mps 753 mmHg 71%
    18:00 +23°C° 0 mm 4 mps 753 mmHg 75%
    19:00 +23°C° 0.1 mm 5 mps 753 mmHg 76%
    20:00 +23°C° 0.1 mm 5 mps 754 mmHg 77%
    21:00 +23°C° 0.1 mm 5 mps 754 mmHg 79%
    22:00 +22°C° 1.7 mm 5 mps 755 mmHg 82%
    23:00 +21°C° 1.7 mm 5 mps 756 mmHg 86%

    Tomorrow, 21 February, Wednesday

    Time Temperature Precipitation Wind Pressure Humidity
    00:00 +20°C° 1.7 mm 5 mps 757 mmHg 89%
    01:00 +18°C° 1 mm 4 mps 757 mmHg 89%
    02:00 +15°C° 1 mm 4 mps 758 mmHg 89%
    03:00 +13°C° 1 mm 4 mps 758 mmHg 89%
    04:00 +12°C° 1.2 mm 4 mps 759 mmHg 89%
    05:00 +11°C° 1.2 mm 4 mps 759 mmHg 90%
    06:00 +10°C° 1.2 mm 4 mps 760 mmHg 90%
    07:00 +8°C° 3.2 mm 4 mps 760 mmHg 91%
    08:00 +8°C° 3.2 mm 4 mps 761 mmHg 91%
    09:00 +8°C° 3.2 mm 4 mps 761 mmHg 92%
    10:00 +7°C° 4.7 mm 5 mps 762 mmHg 92%
    11:00 +7°C° 4.7 mm 5 mps 762 mmHg 92%
    12:00 +7°C° 4.7 mm 5 mps 763 mmHg 92%
    13:00 +6°C° 3.1 mm 5 mps 762 mmHg 92%
    14:00 +6°C° 3.1 mm 5 mps 762 mmHg 93%
    15:00 +6°C° 3.1 mm 5 mps 762 mmHg 93%
    16:00 +6°C° 1.9 mm 4 mps 762 mmHg 93%
    17:00 +6°C° 1.9 mm 4 mps 762 mmHg 93%
    18:00 +6°C° 1.9 mm 4 mps 762 mmHg 93%
    19:00 +6°C° 1.6 mm 4 mps 762 mmHg 93%
    20:00 +6°C° 1.6 mm 4 mps 762 mmHg 93%
    21:00 +6°C° 1.6 mm 4 mps 763 mmHg 93%
    22:00 +6°C° 2.2 mm 4 mps 762 mmHg 93%
    23:00 +6°C° 2.2 mm 4 mps 762 mmHg 93%

    Day after tomorrow, 22 February, Thursday

    Time Temperature Precipitation Wind Pressure Humidity
    00:00 +7°C° 2.2 mm 3 mps 762 mmHg 93%
    01:00 +7°C° 1.1 mm 3 mps 762 mmHg 94%
    02:00 +7°C° 1.1 mm 3 mps 762 mmHg 94%
    03:00 +7°C° 1.1 mm 3 mps 762 mmHg 94%
    04:00 +7°C° 0.1 mm 3 mps 762 mmHg 94%
    05:00 +7°C° 0.1 mm 3 mps 762 mmHg 94%
    06:00 +7°C° 0.1 mm 3 mps 762 mmHg 93%
    07:00 +7°C° 0.1 mm 3 mps 763 mmHg 93%
    08:00 +7°C° 0.1 mm 3 mps 763 mmHg 92%
    09:00 +7°C° 0.1 mm 3 mps 764 mmHg 92%
    10:00 +9°C° 0 mm 3 mps 764 mmHg 89%
    11:00 +11°C° 0 mm 3 mps 764 mmHg 86%
    12:00 +12°C° 0 mm 3 mps 763 mmHg 83%
    13:00 +13°C° 0 mm 3 mps 763 mmHg 82%
    14:00 +15°C° 0 mm 2 mps 762 mmHg 82%
    15:00 +15°C° 0 mm 2 mps 761 mmHg 81%
    16:00 +15°C° 0.4 mm 2 mps 761 mmHg 85%
    17:00 +15°C° 0.4 mm 2 mps 761 mmHg 89%
    18:00 +14°C° 0.4 mm 1 mps 761 mmHg 93%
    19:00 +14°C° 0.9 mm 1 mps 761 mmHg 94%
    20:00 +14°C° 0.9 mm 2 mps 761 mmHg 96%
    21:00 +14°C° 0.9 mm 2 mps 761 mmHg 97%
    22:00 +14°C° 1.9 mm 2 mps 761 mmHg 97%
    23:00 +14°C° 1.9 mm 1 mps 760 mmHg 98%

    23 February, Friday

    Time Temperature Precipitation Wind Pressure Humidity
    00:00 +15°C° 1.9 mm 1 mps 760 mmHg 98%
    01:00 +15°C° 1.8 mm 1 mps 759 mmHg 98%
    02:00 +16°C° 1.8 mm 1 mps 759 mmHg 98%
    03:00 +16°C° 1.8 mm 1 mps 758 mmHg 98%
    04:00 +16°C° 2.8 mm 2 mps 759 mmHg 98%
    05:00 +17°C° 2.8 mm 2 mps 759 mmHg 98%
    06:00 +18°C° 2.8 mm 2 mps 759 mmHg 98%
    07:00 +18°C° 3 mm 2 mps 759 mmHg 98%
    08:00 +18°C° 3 mm 2 mps 759 mmHg 97%
    09:00 +19°C° 3 mm 2 mps 760 mmHg 97%
    10:00 +19°C° 1.8 mm 2 mps 759 mmHg 96%
    11:00 +20°C° 1.8 mm 2 mps 759 mmHg 95%
    12:00 +20°C° 1.8 mm 2 mps 759 mmHg 94%
    13:00 +21°C° 1.8 mm 3 mps 758 mmHg 91%
    14:00 +21°C° 1.8 mm 3 mps 757 mmHg 89%
    15:00 +22°C° 1.8 mm 3 mps 756 mmHg 86%
    16:00 +21°C° 0.1 mm 3 mps 756 mmHg 88%
    17:00 +21°C° 0.1 mm 2 mps 756 mmHg 90%
    18:00 +20°C° 0.1 mm 2 mps 756 mmHg 93%
    19:00 +20°C° 0 mm 2 mps 755 mmHg 93%
    20:00 +20°C° 0 mm 3 mps 755 mmHg 94%
    21:00 +20°C° 0 mm 3 mps 755 mmHg 95%
    22:00 +20°C° 0.1 mm 3 mps 755 mmHg 95%
    23:00 +20°C° 0.1 mm 4 mps 754 mmHg 95%

    24 February, Saturday

    Time Temperature Precipitation Wind Pressure Humidity
    00:00 +20°C° 0.1 mm 4 mps 754 mmHg 95%
    01:00 +20°C° 0 mm 4 mps 754 mmHg 95%
    02:00 +20°C° 0 mm 4 mps 753 mmHg 95%
    03:00 +19°C° 0 mm 4 mps 753 mmHg 96%
    04:00 +20°C° 0.1 mm 4 mps 752 mmHg 95%
    05:00 +20°C° 0.1 mm 3 mps 752 mmHg 94%
    06:00 +20°C° 0.1 mm 3 mps 752 mmHg 94%
    07:00 +20°C° 0.2 mm 4 mps 752 mmHg 93%
    08:00 +20°C° 0.2 mm 4 mps 752 mmHg 92%
    09:00 +20°C° 0.2 mm 4 mps 753 mmHg 91%
    10:00 +21°C° 0.3 mm 5 mps 752 mmHg 88%
    11:00 +22°C° 0.3 mm 5 mps 751 mmHg 85%
    12:00 +22°C° 0.3 mm 6 mps 750 mmHg 82%
    13:00 +22°C° 1 mm 7 mps 749 mmHg 81%
    14:00 +22°C° 1 mm 7 mps 748 mmHg 80%
    15:00 +22°C° 1 mm 8 mps 747 mmHg 79%
    16:00 +21°C° 0.5 mm 7 mps 747 mmHg 81%
    17:00 +21°C° 0.5 mm 7 mps 747 mmHg 83%
    18:00 +21°C° 0.5 mm 7 mps 747 mmHg 85%
    19:00 +20°C° 1.5 mm 6 mps 747 mmHg 82%
    20:00 +19°C° 1.5 mm 6 mps 747 mmHg 79%
    21:00 +17°C° 1.5 mm 5 mps 747 mmHg 76%
    22:00 +16°C° 0 mm 5 mps 748 mmHg 72%
    23:00 +14°C° 0 mm 5 mps 748 mmHg 68%

    25 February, Sunday

    Time Temperature Precipitation Wind Pressure Humidity
    00:00 +13°C° 0 mm 6 mps 749 mmHg 64%
    01:00 +10°C° 0 mm 6 mps 750 mmHg 68%
    02:00 +9°C° 0 mm 6 mps 751 mmHg 71%
    03:00 +7°C° 0 mm 5 mps 752 mmHg 74%
    04:00 +7°C° 0 mm 5 mps 753 mmHg 76%
    05:00 +6°C° 0 mm 4 mps 754 mmHg 77%
    06:00 +7°C° 0 mm 3 mps 755 mmHg 78%
    07:00 +8°C° 0 mm 3 mps 755 mmHg 75%
    08:00 +8°C° 0 mm 3 mps 756 mmHg 71%
    09:00 +9°C° 0 mm 3 mps 757 mmHg 68%
    10:00 +12°C° 0 mm 2 mps 757 mmHg 60%
    11:00 +14°C° 0 mm 2 mps 757 mmHg 53%
    12:00 +16°C° 0 mm 1 mps 757 mmHg 46%
    13:00 +18°C° 0 mm 1 mps 757 mmHg 44%
    14:00 +18°C° 0 mm 1 mps 757 mmHg 42%
    15:00 +19°C° 0 mm 1 mps 756 mmHg 39%
    16:00 +18°C° 0 mm 1 mps 756 mmHg 44%
    17:00 +14°C° 0 mm 0 mps 756 mmHg 49%
    18:00 +12°C° 0 mm 0 mps 756 mmHg 54%
    19:00 +12°C° 0 mm 0 mps 757 mmHg 57%
    20:00 +11°C° 0 mm 0 mps 757 mmHg 59%
    21:00 +10°C° 0 mm 0 mps 758 mmHg 62%
    22:00 +10°C° 0 mm 0 mps 758 mmHg 64%
    23:00 +9°C° 0 mm 0 mps 758 mmHg 66%
    Show more